Вернуться в каталог

MOLNIYA 3-41

АктивенСвязьHEO
NORAD 21706·PAYLOAD·🇷🇺 Russia

Запущен Sep 17, 1991 с Plesetsk Cosmodrome

Loading…

Ближайшие Пролёты (ближайшие 24 часа)

TLE

СвежийSource: Space-Track

Эпоха: Sep 13, 2026, 22:49 UTC

1 21706U 91065A   26256.95134298  .00000796  00000-0  50385-3 0  9995
2 21706  62.6098 305.2239 7417988 254.1688  19.6056  2.04504481258539

Отслеживайте MOLNIYA 3-41 в реальном времени с AllMySat

Download on the App Store